Regional Weather Roundup
Issued by NWS

Home | Current Version | Previous Version | Text Only | Print | Product List | Glossary Off
Versions: 1 2 3 4 5 6 7 8 9 10 11 12 13 14 15 16 17 18 19 20 21 22 23 24 25 26 27 28 29 30 31 32 33 34 35 36 37 38 39 40 41 42 43 44 45 46 47 48 49 50

000
ASUS45 KABQ 301610
RWRNM
NEW MEXICO REGIONAL WEATHER ROUNDUP
NATIONAL WEATHER SERVICE ALBUQUERQUE NM
1000 AM MDT SUN AUG 30 2015

NOTE: "FAIR" MEANS FEW OR NO CLOUDS BELOW 12,000 FEET AGL WITH NO
       SIGNIFICANT WEATHER OR OBSTRUCTIONS TO VISION.

      THIS PRODUCT IS RELEASED AS TWO VERSIONS.  ONE VERSION NEAR
      THE TOP OF THE HOUR CONTAINING PRELIMINARY DATA FROM ALBUQUERQUE
      AND OTHER STATIONS.  A FINAL VERSION WITH ADDITIONAL DATA IS
      ISSUED ABOUT 10 MINUTES AFTER THE HOUR.

NMZ501-503-504-510>518-301700-
NORTHWEST PLATEAU/NORTHCENTRAL MOUNTAINS

CITY           SKY/WX    TMP DP  RH WIND       PRES   REMARKS
FARMINGTON     PTSUNNY   75  48  38 E9        30.23R
LOS ALAMOS     SUNNY     67  50  53 NE5       30.38R
SANTA FE       SUNNY     73  50  44 N8        30.31S
TAOS           SUNNY     70  43  37 SW3       30.39S
ANGEL FIRE     FAIR      56  50  79 CALM      30.46S

$$
NMZ402-403-502-505>509-301700-
WESTCENTRAL MOUNTAINS/SOUTHWEST MOUNTAINS

CITY           SKY/WX    TMP DP  RH WIND       PRES   REMARKS
GALLUP         SUNNY     73  49  42 VRB5      30.31S
GRANTS         SUNNY     71  50  47 E8        30.34S
SILVER CITY      N/A     75  54  46 SE9       30.27S

$$
NMZ407-409-411-412-301700-
SOUTHERN DESERTS

CITY           SKY/WX    TMP DP  RH WIND       PRES   REMARKS
DEMING         SUNNY     79  55  43 VRB3      30.18S
LAS CRUCES     SUNNY     80  52  37 SE7       30.20S
ALAMOGORDO     SUNNY     75  55  50 W3        30.20R
T OR C         SUNNY     80  52  37 VRB5      30.21R

$$
NMZ519>523-301700-
CENTRAL VALLEYS/CENTRAL HIGHLANDS

CITY           SKY/WX    TMP DP  RH WIND       PRES   REMARKS
ALBUQUERQUE    MOSUNNY   75  50  41 S3        30.26S
DOUBLE EAGLE   MOSUNNY   75  52  43 NE6       30.29S
MORIARTY ARPT  FAIR      70  52  51 CALM      30.32S
CLINES CORNERS SUNNY     72  51  47 W13       30.34R
BELEN          FAIR      75  50  41 E3        30.25S
SOCORRO        FAIR      76  51  42 CALM      30.23S

$$
NMZ524>526-539-540-301700-
SOUTHCENTRAL MOUNTAINS

CITY           SKY/WX    TMP DP  RH WIND       PRES   REMARKS
RUIDOSO        SUNNY     70  50  49 MISG      30.37S

$$
NMZ527>531-301700-
NORTHEAST HIGHLANDS/NORTHEAST PLAINS

CITY           SKY/WX    TMP DP  RH WIND       PRES   REMARKS
LAS VEGAS      SUNNY     72  47  40 SW5       30.32S
RATON          SUNNY     70  50  49 VRB3      30.26S
CLAYTON        SUNNY     76  59  55 S9        30.19S

$$
NMZ532>537-301700-
EASTCENTRAL PLAINS

CITY           SKY/WX    TMP DP  RH WIND       PRES   REMARKS
TUCUMCARI      SUNNY     80  57  45 SW7       30.16S
CANNON AFB     NOT AVBL
CLOVIS AIRPORT SUNNY     73  59  60 SW9       30.22R

$$
NMZ028-029-538-301700-
SOUTHEAST PLAINS

CITY           SKY/WX    TMP DP  RH WIND       PRES   REMARKS
ROSWELL        SUNNY     77  55  46 S9        30.18R
ARTESIA        SUNNY     75  59  57 S6        30.18S
CARLSBAD       NOT AVBL
HOBBS          SUNNY     75  55  50 CALM      30.20R


$$


USA.gov is the U.S. government's official web portal to all federal, state and local government web resources and services.